Home   Weather   Manizales   Past weeks

Flag for Colombia Past Weather in Manizales, Colombia — Yesterday and Last 2 Weeks

Now
63 °F

Scattered clouds.


Feels Like: 63 °F
Forecast: 51 / 71 °F
Wind: 7 mph from Southeast

Location: Pereira / Matecana

Current Time: Jan 22, 2017 at 7:30:47 am

Latest Report: Jan 22, 2017 at 7:00 am


Visibility: N/A

Pressure: 30.14 "Hg (23.43 "Hg at 2139m altitude)

Humidity: 77%

Dew Point: 55 °F

Location of ManizalesLocation

Past Weather in Manizales — Graph

°F

Manizales Temperature Yesterday

Maximum temperature yesterday: 79 °F (at 4:00 pm)
Minimum temperature yesterday: 61 °F (at 7:00 am)
Average temperature yesterday: 69 °F

High & Low Weather Summary for the Past Weeks

 TemperatureHumidityPressure
High82 °F (Jan 7, 2:00 pm)100% (Jan 8, 3:00 am)30.22 "Hg (Jan 8, 3:00 am)
Low61 °F (Jan 21, 7:00 am)51% (Jan 12, 4:00 pm)29.92 "Hg (Jan 11, 4:00 pm)
Average70 °F82%30.05 "Hg
* Reported Jan 7 6:00 am — Jan 22 6:00 am, Manizales, Weather by CustomWeather, © 2017

Note: Actual official high and low records may vary slightly from our data, if they occured in-between our weather recording intervals... More about our weather records

Advertising

Manizales Weather History for the Previous 24 Hours

Scroll right to see more
 ConditionsComfort  
Time TempWeatherWind HumidityBarometerVisibility
6:00 am
Sun, Jan 22
61 °FPassing clouds.9 mph83%30.12 "HgN/A
5:00 am63 °FPassing clouds.9 mph83%30.10 "HgN/A
12:00 am66 °FPassing clouds.7 mph83%30.14 "HgN/A
11:00 pm
Sat, Jan 21
66 °FPassing clouds.6 mph83%30.15 "HgN/A
10:00 pm68 °FPassing clouds.6 mph83%30.15 "HgN/A
9:00 pm70 °FPassing clouds.2 mph78%30.13 "HgN/A
8:00 pm70 °FPassing clouds.2 mph78%30.10 "HgN/A
7:00 pm73 °FPassing clouds.2 mph69%30.07 "HgN/A
6:00 pm75 °FScattered clouds.5 mph69%30.07 "HgN/A
5:00 pm77 °FScattered clouds.7 mph65%30.06 "HgN/A
4:00 pm79 °FScattered clouds.7 mph61%30.06 "HgN/A
3:00 pm77 °FScattered clouds.8 mph65%30.09 "HgN/A
2:00 pm77 °FScattered clouds.2 mph65%30.12 "HgN/A
1:00 pm77 °FScattered clouds.6 mph65%30.15 "HgN/A
12:00 pm73 °FScattered clouds.5 mph65%30.18 "HgN/A
11:00 am72 °FScattered clouds.6 mph69%30.21 "HgN/A
10:00 am68 °FPartly sunny.5 mph78%30.22 "HgN/A
9:00 am66 °FScattered clouds.7 mph83%30.22 "Hg6 mi
8:00 am64 °FBroken clouds.7 mph88%30.21 "Hg5 mi
7:00 am61 °FDrizzle. Broken clouds.5 mph100%30.18 "Hg3 mi
Weather by CustomWeather, © 2017

See weather overviewHow to use our weather pages